• In Netherlands
  • List of Countries
  • For 7 days
  • Water Temperature
  • Satellite Maps
  • Weather Map
  • Weather Widgets
  • user-avatar
    Login

    Hourly Weather Sherpur

    Today, 28 July, Friday

    Time Temperature Precipitation Wind Pressure Humidity
    00:00 +27°C° 0 mm 1 mps 610 mmHg 36%
    01:00 +26°C° 0 mm 1 mps 610 mmHg 37%
    02:00 +25°C° 0 mm 1 mps 609 mmHg 38%
    03:00 +25°C° 0 mm 1 mps 609 mmHg 39%
    04:00 +24°C° 0 mm 1 mps 609 mmHg 41%
    05:00 +24°C° 0 mm 1 mps 609 mmHg 34%
    06:00 +25°C° 0 mm 1 mps 610 mmHg 32%
    07:00 +26°C° 0 mm 1 mps 611 mmHg 30%
    08:00 +27°C° 0 mm 1 mps 611 mmHg 28%
    09:00 +28°C° 0 mm 1 mps 612 mmHg 25%
    10:00 +30°C° 0 mm 2 mps 612 mmHg 23%
    11:00 +31°C° 0 mm 2 mps 612 mmHg 21%
    12:00 +32°C° 0 mm 2 mps 612 mmHg 20%
    13:00 +34°C° 0 mm 2 mps 612 mmHg 19%
    14:00 +34°C° 0 mm 3 mps 612 mmHg 19%
    15:00 +34°C° 0 mm 3 mps 612 mmHg 19%
    16:00 +34°C° 0 mm 3 mps 612 mmHg 19%
    17:00 +34°C° 0 mm 2 mps 611 mmHg 21%
    18:00 +32°C° 0 mm 2 mps 611 mmHg 23%
    19:00 +31°C° 0 mm 2 mps 611 mmHg 25%
    20:00 +30°C° 0 mm 2 mps 611 mmHg 28%
    21:00 +29°C° 0 mm 2 mps 611 mmHg 30%
    22:00 +28°C° 0 mm 2 mps 611 mmHg 32%
    23:00 +27°C° 0 mm 2 mps 611 mmHg 34%

    Tomorrow, 29 July, Saturday

    Time Temperature Precipitation Wind Pressure Humidity
    00:00 +26°C° 0 mm 2 mps 611 mmHg 37%
    01:00 +26°C° 0 mm 1 mps 610 mmHg 39%
    02:00 +25°C° 0 mm 1 mps 610 mmHg 41%
    03:00 +24°C° 0 mm 1 mps 610 mmHg 42%
    04:00 +24°C° 0 mm 1 mps 609 mmHg 44%
    05:00 +23°C° 0 mm 1 mps 609 mmHg 45%
    06:00 +25°C° 0 mm 1 mps 610 mmHg 41%
    07:00 +26°C° 0 mm 1 mps 610 mmHg 36%
    08:00 +27°C° 0 mm 1 mps 611 mmHg 32%
    09:00 +28°C° 0 mm 1 mps 611 mmHg 28%
    10:00 +29°C° 0 mm 1 mps 611 mmHg 25%
    11:00 +31°C° 0 mm 2 mps 612 mmHg 22%
    12:00 +32°C° 0 mm 2 mps 612 mmHg 21%
    13:00 +34°C° 0 mm 2 mps 611 mmHg 20%
    14:00 +34°C° 0 mm 2 mps 611 mmHg 18%
    15:00 +34°C° 0 mm 2 mps 611 mmHg 19%
    16:00 +34°C° 0 mm 2 mps 611 mmHg 19%
    17:00 +34°C° 0 mm 3 mps 611 mmHg 19%
    18:00 +32°C° 0 mm 2 mps 611 mmHg 22%
    19:00 +31°C° 0 mm 2 mps 611 mmHg 25%
    20:00 +30°C° 0 mm 2 mps 610 mmHg 28%
    21:00 +29°C° 0 mm 2 mps 610 mmHg 31%
    22:00 +28°C° 0 mm 2 mps 610 mmHg 34%
    23:00 +27°C° 0 mm 2 mps 610 mmHg 37%

    Day after tomorrow, 30 July, Sunday

    Time Temperature Precipitation Wind Pressure Humidity
    00:00 +27°C° 0 mm 1 mps 610 mmHg 40%
    01:00 +26°C° 0 mm 1 mps 610 mmHg 42%
    02:00 +26°C° 0 mm 1 mps 609 mmHg 45%
    03:00 +25°C° 0 mm 1 mps 609 mmHg 45%
    04:00 +25°C° 0 mm 1 mps 609 mmHg 45%
    05:00 +24°C° 0 mm 1 mps 609 mmHg 45%
    06:00 +25°C° 0 mm 1 mps 609 mmHg 40%
    07:00 +27°C° 0 mm 1 mps 610 mmHg 35%
    08:00 +28°C° 0 mm 1 mps 610 mmHg 30%
    09:00 +29°C° 0 mm 1 mps 610 mmHg 27%
    10:00 +31°C° 0 mm 1 mps 611 mmHg 23%
    11:00 +32°C° 0 mm 1 mps 611 mmHg 20%
    12:00 +34°C° 0 mm 2 mps 611 mmHg 19%
    13:00 +35°C° 0 mm 2 mps 611 mmHg 17%
    14:00 +36°C° 0 mm 2 mps 611 mmHg 16%
    15:00 +36°C° 0 mm 3 mps 611 mmHg 15%
    16:00 +36°C° 0 mm 3 mps 611 mmHg 15%
    17:00 +36°C° 0 mm 3 mps 611 mmHg 14%
    18:00 +35°C° 0 mm 3 mps 610 mmHg 16%
    19:00 +34°C° 0 mm 3 mps 610 mmHg 18%
    20:00 +31°C° 0 mm 3 mps 610 mmHg 20%
    21:00 +30°C° 0 mm 3 mps 610 mmHg 23%
    22:00 +29°C° 0 mm 3 mps 610 mmHg 25%
    23:00 +28°C° 0 mm 2 mps 610 mmHg 28%

    31 July, Monday

    Time Temperature Precipitation Wind Pressure Humidity
    00:00 +27°C° 0 mm 2 mps 609 mmHg 31%
    01:00 +26°C° 0 mm 2 mps 609 mmHg 33%
    02:00 +26°C° 0 mm 1 mps 609 mmHg 35%
    03:00 +25°C° 0 mm 1 mps 608 mmHg 36%
    04:00 +25°C° 0 mm 1 mps 608 mmHg 37%
    05:00 +24°C° 0 mm 1 mps 608 mmHg 38%
    06:00 +25°C° 0 mm 2 mps 609 mmHg 33%
    07:00 +27°C° 0 mm 2 mps 609 mmHg 28%
    08:00 +28°C° 0 mm 2 mps 610 mmHg 23%
    09:00 +30°C° 0 mm 2 mps 610 mmHg 20%
    10:00 +31°C° 0 mm 2 mps 611 mmHg 17%
    11:00 +34°C° 0 mm 2 mps 611 mmHg 14%
    12:00 +35°C° 0 mm 2 mps 611 mmHg 13%
    13:00 +35°C° 0 mm 3 mps 611 mmHg 11%
    14:00 +36°C° 0 mm 3 mps 611 mmHg 10%
    15:00 +36°C° 0 mm 3 mps 611 mmHg 10%
    16:00 +36°C° 0 mm 4 mps 611 mmHg 10%
    17:00 +36°C° 0 mm 4 mps 611 mmHg 10%
    18:00 +35°C° 0 mm 4 mps 610 mmHg 12%
    19:00 +33°C° 0 mm 3 mps 610 mmHg 14%
    20:00 +30°C° 0 mm 3 mps 610 mmHg 16%
    21:00 +29°C° 0 mm 3 mps 610 mmHg 19%
    22:00 +28°C° 0 mm 2 mps 610 mmHg 21%
    23:00 +27°C° 0 mm 2 mps 610 mmHg 24%

    1 August, Tuesday

    Time Temperature Precipitation Wind Pressure Humidity
    00:00 +26°C° 0 mm 2 mps 610 mmHg 26%
    01:00 +25°C° 0 mm 2 mps 609 mmHg 29%
    02:00 +25°C° 0 mm 1 mps 609 mmHg 32%
    03:00 +24°C° 0 mm 1 mps 609 mmHg 33%
    04:00 +24°C° 0 mm 1 mps 608 mmHg 34%
    05:00 +23°C° 0 mm 1 mps 608 mmHg 34%
    06:00 +24°C° 0 mm 1 mps 609 mmHg 30%
    07:00 +26°C° 0 mm 2 mps 610 mmHg 25%
    08:00 +27°C° 0 mm 2 mps 611 mmHg 20%
    09:00 +29°C° 0 mm 2 mps 611 mmHg 17%
    10:00 +30°C° 0 mm 2 mps 611 mmHg 15%
    11:00 +32°C° 0 mm 2 mps 612 mmHg 12%
    12:00 +34°C° 0 mm 2 mps 612 mmHg 11%
    13:00 +35°C° 0 mm 2 mps 611 mmHg 10%
    14:00 +36°C° 0 mm 3 mps 611 mmHg 9%
    15:00 +36°C° 0 mm 3 mps 611 mmHg 10%
    16:00 +36°C° 0 mm 4 mps 611 mmHg 10%
    17:00 +36°C° 0 mm 4 mps 611 mmHg 10%
    18:00 +34°C° 0 mm 4 mps 611 mmHg 11%
    19:00 +33°C° 0 mm 4 mps 611 mmHg 13%
    20:00 +30°C° 0 mm 3 mps 610 mmHg 15%
    21:00 +29°C° 0 mm 3 mps 610 mmHg 17%
    22:00 +28°C° 0 mm 2 mps 610 mmHg 20%
    23:00 +27°C° 0 mm 2 mps 610 mmHg 22%

    2 August, Wednesday

    Time Temperature Precipitation Wind Pressure Humidity
    00:00 +26°C° 0 mm 2 mps 610 mmHg 23%
    01:00 +25°C° 0 mm 2 mps 609 mmHg 24%
    02:00 +25°C° 0 mm 2 mps 609 mmHg 25%
    03:00 +24°C° 0 mm 2 mps 609 mmHg 24%
    04:00 +24°C° 0 mm 2 mps 608 mmHg 24%
    05:00 +23°C° 0 mm 2 mps 608 mmHg 23%
    06:00 +25°C° 0 mm 2 mps 609 mmHg 21%
    07:00 +26°C° 0 mm 2 mps 610 mmHg 19%
    08:00 +27°C° 0 mm 2 mps 610 mmHg 16%
    09:00 +29°C° 0 mm 2 mps 610 mmHg 15%
    10:00 +30°C° 0 mm 2 mps 611 mmHg 14%
    11:00 +33°C° 0 mm 3 mps 611 mmHg 13%
    12:00 +34°C° 0 mm 3 mps 611 mmHg 13%
    13:00 +34°C° 0 mm 3 mps 611 mmHg 12%
    14:00 +35°C° 0 mm 3 mps 610 mmHg 12%
    15:00 +35°C° 0 mm 4 mps 610 mmHg 12%
    16:00 +35°C° 0 mm 4 mps 610 mmHg 12%
    17:00 +35°C° 0 mm 5 mps 610 mmHg 12%
    18:00 +34°C° 0 mm 4 mps 610 mmHg 15%
    19:00 +32°C° 0 mm 4 mps 610 mmHg 17%
    20:00 +29°C° 0 mm 4 mps 609 mmHg 19%
    21:00 +28°C° 0 mm 3 mps 609 mmHg 20%
    22:00 +27°C° 0 mm 3 mps 609 mmHg 22%
    23:00 +26°C° 0 mm 3 mps 609 mmHg 23%
    Show more